Date String (YYYY-MM-DD hh:mm:ss) UTC,Instrument flags,Ambient pressure (hPa),Sample flow (lpm),Bypass flow (lpm),Sample temperature (°C),Ambient temperature (°C),ASC tube jacket temperature (°C),LED temperature (°C),Box temperature (°C),Sample RH (%),Span deviation,Mass concentration (μg/m³),Mass concentration (μg/m³),Mass concentration (μg/m³)
DateTimeUTC,F1_M11,P_M11,Q1_M11,Q2_M11,T1_M11,T2_M11,T3_M11,T4_M11,T5_M11,U1_M11,ZSPAN_M11,X0_M11,X2_M11,X1_M11
2023-04-26 08:00:00,,0830.9,4.99,0.00,22.5,21.1,00.0,30.9,24.0,28.1,0000.0,0001.40,0001.00,0000.82
2023-04-26 08:01:00,,0830.9,5.00,0.00,22.5,21.1,00.0,30.9,24.1,28.0,0000.0,0001.65,0001.03,0000.84
2023-04-26 08:02:00,,0830.9,5.00,0.00,22.5,21.1,00.0,30.9,24.1,28.1,0000.0,0001.56,0001.00,0000.84
2023-04-26 08:03:00,,0830.9,5.00,0.00,22.5,21.1,00.0,30.9,24.1,28.0,0000.0,0001.55,0001.00,0000.84
2023-04-26 08:04:00,,0830.9,5.00,0.00,22.5,21.1,00.0,30.9,24.1,28.0,0000.0,0001.56,0001.01,0000.84
2023-04-26 08:05:00,,0830.9,5.00,0.00,22.5,21.1,00.0,30.9,24.1,28.0,0000.0,0001.61,0001.01,0000.84
2023-04-26 08:06:00,,0830.9,5.00,0.00,22.5,21.1,00.0,30.9,24.1,27.9,0000.0,0001.62,0001.01,0000.83
2023-04-26 08:07:00,,0830.9,5.00,0.00,22.5,21.1,00.0,30.9,24.1,27.9,0000.0,0001.65,0001.01,0000.81
2023-04-26 08:08:00,,0830.9,5.00,0.00,22.5,21.1,00.0,30.9,24.1,27.8,0000.0,0001.59,0000.96,0000.78
2023-04-26 08:09:00,,0830.9,5.00,0.00,22.5,21.1,00.0,30.9,24.1,27.8,0000.0,0001.54,0000.92,0000.75
2023-04-26 08:10:00,,0830.9,5.00,0.00,22.5,21.1,00.0,30.9,24.0,27.7,0000.0,0001.54,0000.90,0000.71
2023-04-26 08:11:00,,0830.9,4.99,0.00,22.5,21.1,00.0,30.9,24.0,27.7,0000.0,0001.41,0000.83,0000.68
2023-04-26 08:12:00,,0830.9,5.01,0.00,22.5,21.1,00.0,30.9,24.0,27.7,0000.0,0001.24,0000.80,0000.63
2023-04-26 08:13:00,,0830.9,5.00,0.00,22.5,21.1,00.0,30.9,24.0,27.6,0000.0,0001.14,0000.75,0000.59
2023-04-26 08:14:00,,0830.9,5.00,0.00,22.5,21.1,00.0,30.9,24.1,27.5,0000.0,0001.11,0000.72,0000.55
2023-04-26 08:15:00,,0830.9,5.00,0.00,22.5,21.1,00.0,30.9,24.1,27.4,0000.0,0001.03,0000.67,0000.51
2023-04-26 08:16:00,,0830.9,5.00,0.00,22.5,21.1,00.0,30.9,24.1,27.3,0000.0,0000.93,0000.62,0000.47
2023-04-26 08:17:00,,0830.9,5.00,0.00,22.5,21.1,00.0,30.9,24.1,27.3,0000.0,0000.90,0000.59,0000.44
2023-04-26 08:18:00,,0830.9,5.00,0.00,22.5,21.2,00.0,30.9,24.1,27.3,0000.0,0000.78,0000.54,0000.41
2023-04-26 08:19:00,,0830.9,4.99,0.00,22.5,21.2,00.0,30.9,24.1,27.2,0000.0,0000.74,0000.51,0000.38
2023-04-26 08:20:00,,0830.8,5.00,0.00,22.5,21.2,00.0,30.9,24.1,27.3,0000.0,0000.73,0000.49,0000.37
2023-04-26 08:21:00,,0830.9,5.00,0.00,22.5,21.2,00.0,30.9,24.1,27.2,0000.0,0000.70,0000.47,0000.35
2023-04-26 08:22:00,,0830.8,4.99,0.00,22.5,21.2,00.0,30.9,24.1,27.1,0000.0,0000.77,0000.48,0000.33
2023-04-26 08:23:00,,0830.8,5.00,0.00,22.5,21.1,00.0,30.9,24.1,27.1,0000.0,0000.62,0000.42,0000.31
2023-04-26 08:24:00,,0830.9,5.01,0.00,22.5,21.1,00.0,30.9,24.2,27.0,0000.0,0000.59,0000.39,0000.28
2023-04-26 08:25:00,,0830.9,5.00,0.00,22.5,21.1,00.0,30.9,24.1,27.1,0000.0,0000.58,0000.37,0000.27
2023-04-26 08:26:00,,0830.9,5.00,0.00,22.6,21.1,00.0,30.9,24.1,27.1,0000.0,0000.56,0000.35,0000.26
2023-04-26 08:27:00,,0830.9,5.00,0.00,22.6,21.1,00.0,30.9,24.1,27.1,0000.0,0000.60,0000.37,0000.26
2023-04-26 08:28:00,,0830.9,4.99,0.00,22.6,21.2,00.0,30.9,24.1,27.1,0000.0,0000.65,0000.36,0000.26
2023-04-26 08:29:00,,0830.9,4.99,0.00,22.6,21.2,00.0,30.9,24.1,27.1,0000.0,0000.69,0000.35,0000.25
2023-04-26 08:30:00,,0830.9,5.01,0.00,22.6,21.2,00.0,30.9,24.1,27.1,0000.0,0000.68,0000.34,0000.25
2023-04-26 08:31:00,,0831.0,5.01,0.00,22.6,21.2,00.0,30.9,24.1,27.1,0000.0,0000.66,0000.33,0000.24
2023-04-26 08:32:00,,0831.0,5.00,0.00,22.6,21.2,00.0,30.9,24.1,27.0,0000.0,0000.62,0000.31,0000.23
2023-04-26 08:33:00,,0831.0,4.99,0.00,22.6,21.2,00.0,30.9,24.1,27.0,0000.0,0000.56,0000.28,0000.21
2023-04-26 08:34:00,,0830.9,5.00,0.00,22.6,21.2,00.0,30.9,24.1,27.0,0000.0,0000.62,0000.29,0000.20
2023-04-26 08:35:00,,0831.0,4.99,0.00,22.6,21.2,00.0,30.9,24.1,27.0,0000.0,0000.65,0000.30,0000.19
2023-04-26 08:36:00,,0830.9,5.00,0.00,22.6,21.2,00.0,30.9,24.1,27.0,0000.0,0000.65,0000.29,0000.19
2023-04-26 08:37:00,,0830.9,5.00,0.00,22.6,21.2,00.0,30.9,24.2,27.0,0000.0,0000.66,0000.29,0000.18
2023-04-26 08:38:00,,0831.0,5.00,0.00,22.6,21.2,00.0,30.9,24.2,27.0,0000.0,0000.61,0000.27,0000.16
2023-04-26 08:39:00,,0830.9,5.01,0.00,22.6,21.2,00.0,30.9,24.2,27.0,0000.0,0000.55,0000.26,0000.15
2023-04-26 08:40:00,,0830.9,5.00,0.00,22.6,21.2,00.0,30.9,24.1,27.0,0000.0,0000.47,0000.24,0000.14
2023-04-26 08:41:00,,0830.9,5.00,0.00,22.6,21.2,00.0,30.9,24.2,27.0,0000.0,0000.46,0000.23,0000.13
2023-04-26 08:42:00,,0830.9,5.00,0.00,22.6,21.2,00.0,30.9,24.2,27.0,0000.0,0000.49,0000.24,0000.13
2023-04-26 08:43:00,,0830.9,5.00,0.00,22.6,21.1,00.0,30.9,24.2,27.0,0000.0,0000.49,0000.24,0000.13
2023-04-26 08:44:00,,0830.9,4.99,0.00,22.6,21.2,00.0,30.9,24.2,26.9,0000.0,0000.48,0000.24,0000.14
2023-04-26 08:45:00,,0830.9,5.00,0.00,22.6,21.2,00.0,30.9,24.2,26.9,0000.0,0000.43,0000.23,0000.14
2023-04-26 08:46:00,,0830.9,4.99,0.00,22.6,21.1,00.0,30.9,24.1,26.9,0000.0,0000.40,0000.22,0000.14
2023-04-26 08:47:00,,0830.9,5.00,0.00,22.6,21.1,00.0,30.9,24.2,26.8,0000.0,0000.35,0000.21,0000.14
2023-04-26 08:48:00,,0830.9,5.01,0.00,22.6,21.1,00.0,30.9,24.2,26.8,0000.0,0000.39,0000.22,0000.14
2023-04-26 08:49:00,,0830.9,5.00,0.00,22.6,21.1,00.0,30.9,24.2,26.9,0000.0,0000.41,0000.22,0000.14
2023-04-26 08:50:00,,0830.9,5.01,0.00,22.6,21.1,00.0,30.9,24.2,26.8,0000.0,0000.43,0000.23,0000.14
2023-04-26 08:51:00,,0830.9,5.00,0.00,22.6,21.1,00.0,30.9,24.2,26.8,0000.0,0000.45,0000.23,0000.14
2023-04-26 08:52:00,,0831.0,4.99,0.00,22.6,21.1,00.0,30.9,24.2,26.9,0000.0,0000.49,0000.25,0000.14
2023-04-26 08:53:00,,0830.9,4.99,0.00,22.6,21.1,00.0,30.9,24.2,26.8,0000.0,0000.45,0000.24,0000.14
2023-04-26 08:54:00,,0830.9,5.00,0.00,22.6,21.1,00.0,30.9,24.2,26.9,0000.0,0000.48,0000.25,0000.14
2023-04-26 08:55:00,,0831.0,5.00,0.00,22.6,21.1,00.0,30.9,24.2,27.0,0000.0,0000.48,0000.25,0000.15
2023-04-26 08:56:00,,0830.9,5.00,0.00,22.6,21.1,00.0,30.9,24.2,27.0,0000.0,0000.46,0000.25,0000.15
2023-04-26 08:57:00,,0831.0,5.00,0.00,22.6,21.1,00.0,30.9,24.2,27.0,0000.0,0000.49,0000.26,0000.16
2023-04-26 08:58:00,,0831.0,5.00,0.00,22.6,21.1,00.0,30.9,24.2,27.0,0000.0,0000.55,0000.29,0000.18
2023-04-26 08:59:00,,0831.0,5.00,0.00,22.6,21.1,00.0,30.9,24.2,27.0,0000.0,0000.48,0000.28,0000.19
